Voltar ao catálogo

THOR ABLESTAR DEB *

AtivoLEO
NORAD 19961·DEBRIS·🇺🇸 United States

Lançado Jun 29, 1961 de Cape Canaveral Space Force Station

Loading…

Próximas Passagens (próximas 24 horas)

TLE

AtualizadoSource: Space-Track

Época: Sep 14, 2026, 15:54 UTC

1 19961U 61015MJ  26257.66312177  .00000135  00000-0  19398-3 0  9996
2 19961  65.6442 342.7302 0164288 319.2063 192.6399 13.78701651952856

Acompanhe THOR ABLESTAR DEB * em tempo real com AllMySat

Download on the App Store